Weather History for Idabel, OK

Change the Weather History Date:

Wednesday, March 6, 2013

  Actual Average (KDEQ) Record (KDEQ)
Temperature  
Mean Temperature 45 °F 51 °F  
Max Temperature 60 °F 64 °F 87 °F (1991)
Min Temperature 30 °F 38 °F 21 °F (1954)
Degree Days  
Heating Degree Days 20 15  
Month to date heating degree days 92  
Since 1 July heating degree days 2583  
Cooling Degree Days 0 0  
Month to date cooling degree days 0  
Year to date cooling degree days 2  
Moisture  
Dew Point 20 °F    
Average Humidity 40    
Maximum Humidity 65    
Minimum Humidity 16    
Precipitation  
Precipitation 0.00 in 0.12 in 1.15 in (1967)
Month to date precipitation 0.55  
Year to date precipitation 7.55  
Snow  
Snow 0.00 in - - ()
Month to date snowfall  
Since 1 July snowfall  
Snow Depth -    
Sea Level Pressure  
Sea Level Pressure 30.33 in    
Wind  
Wind Speed 5 mph (WNW)    
Max Wind Speed 13 mph    
Max Gust Speed -    
Visibility 10 miles    
Events      
T = Trace of Precipitation, MM = Missing Value Source: NWS Daily Summary

Daily Weather History Graph

Daily Weather History Graph

Search for Another Location

Airport:

Trip Planner

Search our weather history database for the weather conditions in past years. The results will help you decide how hot, cold, wet, or windy it might be!

Date:

Astronomy

Mar. 06, 2013 Rise Set
Actual Time 6:41 AM CST 6:20 PM CST
Civil Twilight 6:16 AM CST 6:45 PM CST
Nautical Twilight 5:47 AM CST 7:14 PM CST
Astronomical Twilight 5:18 AM CST 7:43 PM CST
Moon 2:39 AM CST (3/6) 1:14 PM CST (3/6)
Length of Visible Light 12h 28m
Length of Day
11h 38m
Waning Crescent, 29% of the Moon is Illuminated
Mar 6
Waning Crescent
Mar 11
New
Mar 19
First Quarter
Mar 27
Full
Apr 2
Last Quarter

Hourly Weather History & Observations

Time (CST) Temp. Windchill Dew Point Humidity Pressure Visibility Wind Dir Wind Speed Gust Speed Precip Events Conditions
12:15 AM 37.4 °F 32.8 °F 21.2 °F 52% 30.33 in 10.0 mi NW 5.8 mph - N/A   Clear
12:55 AM 35.6 °F 30.7 °F 21.2 °F 56% 30.35 in 10.0 mi WNW 5.8 mph - N/A   Clear
1:15 AM 35.6 °F 31.7 °F 21.2 °F 56% 30.35 in 10.0 mi WNW 4.6 mph - N/A   Clear
1:35 AM 35.6 °F 31.7 °F 21.2 °F 56% 30.36 in 10.0 mi WNW 4.6 mph - N/A   Clear
1:55 AM 35.6 °F 31.7 °F 21.2 °F 56% 30.36 in 10.0 mi WNW 4.6 mph - N/A   Clear
2:15 AM 33.8 °F 28.6 °F 21.2 °F 60% 30.36 in 10.0 mi NW 5.8 mph - N/A   Clear
2:35 AM 33.8 °F 28.6 °F 23.0 °F 65% 30.36 in 10.0 mi NW 5.8 mph - N/A   Clear
2:55 AM 33.8 °F 28.6 °F 23.0 °F 65% 30.36 in 10.0 mi NW 5.8 mph - N/A   Clear
3:15 AM 33.8 °F 27.7 °F 23.0 °F 65% 30.36 in 10.0 mi NW 6.9 mph - N/A   Clear
3:55 AM 33.8 °F 27.7 °F 23.0 °F 65% 30.37 in 10.0 mi NW 6.9 mph - N/A   Clear
4:15 AM 33.8 °F 27.0 °F 23.0 °F 65% 30.37 in 10.0 mi NW 8.1 mph - N/A   Clear
4:35 AM 33.8 °F 24.8 °F 21.2 °F 60% 30.38 in 10.0 mi NW 12.7 mph - N/A   Clear
4:55 AM 33.8 °F 26.4 °F 21.2 °F 60% 30.38 in 10.0 mi NW 9.2 mph - N/A   Clear
5:55 AM 32.0 °F 25.6 °F 21.2 °F 64% 30.39 in 10.0 mi NNW 6.9 mph - N/A   Clear
6:35 AM 32.0 °F 25.6 °F 19.4 °F 60% 30.39 in 10.0 mi North 6.9 mph - N/A   Clear
6:55 AM 30.2 °F - 19.4 °F 64% 30.40 in 10.0 mi Calm Calm - N/A   Clear
7:15 AM 32.0 °F 26.4 °F 21.2 °F 64% 30.41 in 10.0 mi West 5.8 mph - N/A   Clear
7:35 AM 32.0 °F 28.7 °F 21.2 °F 64% 30.41 in 10.0 mi West 3.5 mph - N/A   Clear
7:55 AM 35.6 °F 29.9 °F 21.2 °F 56% 30.41 in 10.0 mi NNW 6.9 mph - N/A   Clear
8:15 AM 37.4 °F 32.8 °F 19.4 °F 48% 30.41 in 10.0 mi NNW 5.8 mph - N/A   Clear
8:35 AM 37.4 °F 32.1 °F 19.4 °F 48% 30.42 in 10.0 mi NW 6.9 mph - N/A   Clear
8:55 AM 39.2 °F 33.6 °F 19.4 °F 45% 30.42 in 10.0 mi North 8.1 mph - N/A   Clear
9:15 AM 41.0 °F 35.8 °F 19.4 °F 42% 30.43 in 10.0 mi North 8.1 mph - N/A   Clear
9:35 AM 42.8 °F 38.6 °F 19.4 °F 39% 30.43 in 10.0 mi North 6.9 mph - N/A   Clear
9:55 AM 44.6 °F 40.7 °F 17.6 °F 34% 30.43 in 10.0 mi North 6.9 mph - N/A   Clear
10:15 AM 44.6 °F 40.7 °F 17.6 °F 34% 30.43 in 10.0 mi North 6.9 mph - N/A   Clear
10:35 AM 46.4 °F 44.3 °F 17.6 °F 32% 30.42 in 10.0 mi North 4.6 mph - N/A   Clear
10:55 AM 48.2 °F - 17.6 °F 30% 30.42 in 10.0 mi NNE 6.9 mph - N/A   Clear
11:15 AM 50.0 °F - 17.6 °F 28% 30.41 in 10.0 mi North 5.8 mph - N/A   Clear
11:35 AM 51.8 °F - 17.6 °F 26% 30.40 in 10.0 mi East 4.6 mph - N/A   Clear
11:55 AM 53.6 °F - 17.6 °F 24% 30.39 in 10.0 mi NE 4.6 mph - N/A   Clear
12:15 PM 55.4 °F - 17.6 °F 23% 30.38 in 10.0 mi East 3.5 mph - N/A   Clear
12:35 PM 55.4 °F - 17.6 °F 23% 30.37 in 10.0 mi Calm Calm - N/A   Clear
12:55 PM 59.0 °F - 17.6 °F 20% 30.35 in 10.0 mi North 3.5 mph - N/A   Clear
1:15 PM 59.0 °F - 15.8 °F 19% 30.34 in 10.0 mi Calm Calm - N/A   Clear
1:35 PM 59.0 °F - 14.0 °F 17% 30.32 in 10.0 mi SSW 6.9 mph - N/A   Clear
1:55 PM 60.8 °F - 15.8 °F 17% 30.32 in 10.0 mi WNW 5.8 mph - N/A   Clear
2:15 PM 59.0 °F - 15.8 °F 19% 30.31 in 10.0 mi West 6.9 mph - N/A   Clear
2:35 PM 59.0 °F - 17.6 °F 20% 30.31 in 10.0 mi West 11.5 mph - N/A   Clear
2:55 PM 60.8 °F - 14.0 °F 16% 30.30 in 10.0 mi WNW 5.8 mph - N/A   Clear
3:15 PM 60.8 °F - 14.0 °F 16% 30.29 in 10.0 mi NW 5.8 mph - N/A   Clear
3:35 PM 60.8 °F - 14.0 °F 16% 30.29 in 10.0 mi WNW 8.1 mph - N/A   Clear
3:55 PM 60.8 °F - 14.0 °F 16% 30.28 in 10.0 mi West 8.1 mph - N/A   Clear
4:15 PM 60.8 °F - 17.6 °F 19% 30.28 in 10.0 mi SW 6.9 mph - N/A   Clear
4:35 PM 60.8 °F - 19.4 °F 20% 30.27 in 10.0 mi SW 8.1 mph - N/A   Clear
4:55 PM 59.0 °F - 19.4 °F 22% 30.27 in 10.0 mi SW 5.8 mph - N/A   Clear
5:15 PM 59.0 °F - 19.4 °F 22% 30.27 in 10.0 mi SW 5.8 mph - N/A   Clear
5:35 PM 55.4 °F - 19.4 °F 25% 30.26 in 10.0 mi SSW 5.8 mph - N/A   Clear
5:55 PM 51.8 °F - 19.4 °F 28% 30.26 in 10.0 mi SSW 4.6 mph - N/A   Clear
6:15 PM 50.0 °F - 19.4 °F 30% 30.26 in 10.0 mi SSW 3.5 mph - N/A   Clear
6:35 PM 48.2 °F - 19.4 °F 32% 30.26 in 10.0 mi SSW 4.6 mph - N/A   Clear
6:55 PM 48.2 °F - 19.4 °F 32% 30.26 in 10.0 mi SSW 4.6 mph - N/A   Clear
7:15 PM 50.0 °F - 19.4 °F 30% 30.25 in 10.0 mi SSW 4.6 mph - N/A   Clear
7:35 PM 48.2 °F - 19.4 °F 32% 30.25 in 10.0 mi South 4.6 mph - N/A   Clear
7:55 PM 48.2 °F - 19.4 °F 32% 30.24 in 10.0 mi South 3.5 mph - N/A   Clear
8:15 PM 48.2 °F - 21.2 °F 34% 30.23 in 10.0 mi Calm Calm - N/A   Clear
8:35 PM 46.4 °F 45.2 °F 21.2 °F 37% 30.24 in 10.0 mi South 3.5 mph - N/A   Clear
8:55 PM 46.4 °F - 24.8 °F 43% 30.25 in 10.0 mi Calm Calm - N/A   Clear
9:15 PM 44.6 °F - 23.0 °F 43% 30.25 in 10.0 mi Calm Calm - N/A   Clear
9:35 PM 42.8 °F - 24.8 °F 49% 30.26 in 10.0 mi Calm Calm - N/A   Clear
9:55 PM 41.0 °F - 26.6 °F 57% 30.26 in 10.0 mi Calm Calm - N/A   Clear
10:15 PM 41.0 °F - 21.2 °F 45% 30.25 in 10.0 mi Calm Calm - N/A   Clear
10:35 PM 41.0 °F - 21.2 °F 45% 30.26 in 10.0 mi Calm Calm - N/A   Clear
10:55 PM 41.0 °F - 21.2 °F 45% 30.25 in 10.0 mi Calm Calm - N/A   Clear
11:15 PM 41.0 °F 37.1 °F 21.2 °F 45% 30.25 in 10.0 mi ENE 5.8 mph - N/A   Clear
11:35 PM 42.8 °F 41.1 °F 19.4 °F 39% 30.25 in 10.0 mi ENE 3.5 mph - N/A   Clear